H1 CPF 1 NER 2013 1 4 9 5041 glonass107 H2 0706501 9107 32393 2013 1 4 0 0 0 2013 1 7 23 45 0 900 1 1 0 0 0 H9 10 0 56296 0.00000 0 11735575.197 5349869.369 21995053.571 10 0 56296 900.00000 0 12552335.768 7864747.254 20753615.677 10 0 56296 1800.00000 0 13493841.535 10144774.205 19108624.494 10 0 56296 2700.00000 0 14511793.071 12142139.545 17092057.965 10 0 56296 3600.00000 0 15551179.434 13820112.559 14743127.295 10 0 56296 4500.00000 0 16552655.477 15154328.481 12107513.203 10 0 56296 5400.00000 0 17455120.286 16133560.830 9236475.032 10 0 56296 6300.00000 0 18198387.693 16759948.589 6185850.059 10 0 56296 7200.00000 0 18725835.656 17048669.806 3014962.858 10 0 56296 8100.00000 0 18986922.126 17027076.658 -214533.634 10 0 56296 9000.00000 0 18939460.532 16733329.751 -3439862.210 10 0 56296 9900.00000 0 18551558.282 16214590.580 -6598346.428 10 0 56296 10800.00000 0 17803135.957 15524849.739 -9628632.144 10 0 56296 11700.00000 0 16686962.702 14722483.709 -12471881.251 10 0 56296 12600.00000 0 15209163.921 13867644.294 -15072913.987 10 0 56296 13500.00000 0 13389179.626 13019591.514 -17381277.580 10 0 56296 14400.00000 0 11259174.929 12234082.762 -19352220.726 10 0 56296 15300.00000 0 8862927.106 11560928.246 -20947555.395 10 0 56296 16200.00000 0 6254235.372 11041815.356 -22136390.054 10 0 56296 17100.00000 0 3494919.111 10708492.951 -22895720.947 10 0 56296 18000.00000 0 652487.303 10581391.253 -23210870.871 10 0 56296 18900.00000 0 -2202424.891 10668734.673 -23075767.795 10 0 56296 19800.00000 0 -4998747.043 10966184.248 -22493058.588 10 0 56296 20700.00000 0 -7667681.279 11457024.352 -21474056.031 10 0 56296 21600.00000 0 -10145316.022 12112885.711 -20038520.242 10 0 56296 22500.00000 0 -12375038.465 12894974.507 -18214278.525 10 0 56296 23400.00000 0 -14309646.716 13755756.307 -16036690.540 10 0 56296 24300.00000 0 -15913075.008 14641024.566 -13547968.486 10 0 56296 25200.00000 0 -17161661.038 15492267.276 -10796364.672 10 0 56296 26100.00000 0 -18044903.405 16249232.681 -7835241.530 10 0 56296 27000.00000 0 -18565678.117 16852586.349 -4722041.418 10 0 56296 27900.00000 0 -18739905.678 17246547.757 -1517175.669 10 0 56296 28800.00000 0 -18595683.074 17381395.058 1717145.707 10 0 56296 29700.00000 0 -18171917.537 17215731.922 4918121.065 10 0 56296 30600.00000 0 -17516519.885 16718420.082 8023577.331 10 0 56296 31500.00000 0 -16684233.833 15870095.121 10973179.277 10 0 56296 32400.00000 0 -15734193.112 14664200.410 13709604.082 10 0 56296 33300.00000 0 -14727309.680 13107494.311 16179657.967 10 0 56296 34200.00000 0 -13723603.516 11220007.946 18335312.832 10 0 56296 35100.00000 0 -12779586.821 9034453.860 20134642.570 10 0 56296 36000.00000 0 -11945813.158 6595108.946 21542640.731 10 0 56296 36900.00000 0 -11264694.977 3956217.118 22531903.579 10 0 56296 37800.00000 0 -10768681.636 1179977.278 23083165.317 10 0 56296 38700.00000 0 -10478874.708 -1665800.596 23185675.116 10 0 56296 39600.00000 0 -10404138.999 -4510274.376 22837408.584 10 0 56296 40500.00000 0 -10540746.732 -7282277.130 22045109.528 10 0 56296 41400.00000 0 -10872569.977 -9913040.876 20824161.005 10 0 56296 42300.00000 0 -11371813.227 -12338823.805 19198287.952 10 0 56296 43200.00000 0 -12000255.258 -14503332.099 17199096.878 10 0 56296 44100.00000 0 -12710947.878 -16359835.884 14865461.261 10 0 56296 45000.00000 0 -13450299.708 -17872891.443 12242764.406 10 0 56296 45900.00000 0 -14160456.777 -19019598.403 9382014.395 10 0 56296 46800.00000 0 -14781878.975 -19790339.973 6338848.357 10 0 56296 47700.00000 0 -15256002.934 -20188976.066 3172445.791 10 0 56296 48600.00000 0 -15527878.189 -20232482.283 -55627.491 10 0 56296 49500.00000 0 -15548664.437 -19950051.109 -3282621.752 10 0 56296 50400.00000 0 -15277883.725 -19381694.409 -6445827.854 10 0 56296 51300.00000 0 -14685331.748 -18576407.396 -9483799.477 10 0 56296 52200.00000 0 -13752567.005 -17589972.645 -12337548.737 10 0 56296 53100.00000 0 -12473914.594 -16482497.732 -14951691.491 10 0 56296 54000.00000 0 -10856941.945 -15315791.041 -17275520.048 10 0 56296 54900.00000 0 -8922386.103 -14150686.676 -19263982.660 10 0 56296 55800.00000 0 -6703535.253 -13044431.175 -20878551.206 10 0 56296 56700.00000 0 -4245089.854 -12048241.645 -22087961.023 10 0 56296 57600.00000 0 -1601550.316 -11205137.326 -22868809.397 10 0 56296 58500.00000 0 1164802.283 -10548134.867 -23206002.026 10 0 56296 59400.00000 0 3986249.371 -10098882.112 -23093039.654 10 0 56296 60300.00000 0 6792205.696 -9866786.800 -22532140.008 10 0 56296 61200.00000 0 9511912.145 -9848675.937 -21534193.037 10 0 56296 62100.00000 0 12077140.105 -10028999.536 -20118550.481 10 0 56296 63000.00000 0 14424796.383 -10380569.817 -18312653.569 10 0 56296 63900.00000 0 16499321.576 -10865804.747 -16151505.649 10 0 56296 64800.00000 0 18254783.314 -11438423.774 -13676999.285 10 0 56296 65700.00000 0 19656578.100 -12045524.707 -10937110.063 10 0 56296 66600.00000 0 20682671.467 -12629954.582 -7984972.043 10 0 56296 67500.00000 0 21324325.219 -13132874.910 -4877852.084 10 0 56296 68400.00000 0 21586281.734 -13496413.189 -1676042.431 10 0 56296 69300.00000 0 21486397.849 -13666288.699 1558307.176 10 0 56296 70200.00000 0 21054743.917 -13594301.358 4762395.261 10 0 56296 71100.00000 0 20332206.105 -13240577.884 7873988.757 10 0 56296 72000.00000 0 19368650.848 -12575479.555 10832633.423 10 0 56296 72900.00000 0 18220728.960 -11581089.921 13580830.727 10 0 56296 73800.00000 0 16949412.052 -10252218.405 16065157.959 10 0 56296 74700.00000 0 15617365.177 -8596876.129 18237309.385 10 0 56296 75600.00000 0 14286266.540 -6636202.391 20055038.044 10 0 56296 76500.00000 0 13014187.186 -4403843.359 21482979.721 10 0 56296 77400.00000 0 11853141.022 -1944807.544 22493343.009 10 0 56296 78300.00000 0 10846908.181 686155.456 23066452.087 10 0 56296 79200.00000 0 10029223.194 3426586.525 23191131.705 10 0 56296 80100.00000 0 9422403.967 6208675.183 22864926.870 10 0 56296 81000.00000 0 9036479.021 8961846.992 22094152.921 10 0 56296 81900.00000 0 8868849.407 11615473.223 20893774.870 10 0 56296 82800.00000 0 8904499.249 14101590.418 19287118.103 10 0 56296 83700.00000 0 9116745.702 16357517.063 17305415.821 10 0 56296 84600.00000 0 9468496.337 18328258.659 14987201.687 10 0 56296 85500.00000 0 9913960.492 19968601.104 12377559.311 10 0 56297 0.00000 0 10400741.836 21244805.355 9527243.126 10 0 56297 900.00000 0 10872223.054 22135832.769 6491687.381 10 0 56297 1800.00000 0 11270141.489 22634050.896 3329923.840 10 0 56297 2700.00000 0 11537245.398 22745389.785 103428.384 10 0 56297 3600.00000 0 11619918.454 22488944.520 -3125079.524 10 0 56297 4500.00000 0 11470660.103 21896040.693 -6292860.776 10 0 56297 5400.00000 0 11050316.449 21008803.797 -9338379.452 10 0 56297 6300.00000 0 10329966.635 19878293.729 -12202500.241 10 0 56297 7200.00000 0 9292384.574 18562283.969 -14829636.709 10 0 56297 8100.00000 0 7933013.909 17122779.728 -17168828.052 10 0 56297 9000.00000 0 6260414.676 15623379.944 -19174723.619 10 0 56297 9900.00000 0 4296162.518 14126594.200 -20808456.494 10 0 56297 10800.00000 0 2074204.099 12691227.055 -22038389.954 10 0 56297 11700.00000 0 -360304.984 11369938.933 -22840723.195 10 0 56297 12600.00000 0 -2952631.981 10207085.048 -23199945.459 10 0 56297 13500.00000 0 -5640501.485 9236921.825 -23109130.665 10 0 56297 14400.00000 0 -8356449.048 8482254.805 -22570067.477 10 0 56297 15300.00000 0 -11030397.255 7953583.553 -21593222.750 10 0 56297 16200.00000 0 -13592348.502 7648778.372 -20197539.167 10 0 56297 17100.00000 0 -15975083.890 7553301.587 -18410070.801 10 0 56297 18000.00000 0 -18116757.174 7640963.579 -16265463.220 10 0 56297 18900.00000 0 -19963276.921 7875181.499 -13805287.549 10 0 56297 19800.00000 0 -21470378.579 8210687.659 -11077240.579 10 0 56297 20700.00000 0 -22605300.566 8595615.731 -8134225.734 10 0 56297 21600.00000 0 -23347994.888 8973876.922 -5033331.983 10 0 56297 22500.00000 0 -23691821.865 9287725.907 -1834729.995 10 0 56297 23400.00000 0 -23643699.922 9480408.106 1399493.308 10 0 56297 24300.00000 0 -23223704.211 9498776.150 4606539.226 10 0 56297 25200.00000 0 -22464130.883 9295764.435 7724117.343 10 0 56297 26100.00000 0 -21408066.284 8832616.421 10691657.066 10 0 56297 27000.00000 0 -20107521.282 8080769.583 13451486.799 10 0 56297 27900.00000 0 -18621209.179 7023317.199 15949957.470 10 0 56297 28800.00000 0 -17012060.761 5655983.987 18138488.144 10 0 56297 29700.00000 0 -15344580.998 3987573.013 19974513.227 10 0 56297 30600.00000 0 -13682158.507 2039863.461 21422312.676 10 0 56297 31500.00000 0 -12084440.795 -153037.929 22453709.020 10 0 56297 32400.00000 0 -10604885.385 -2545866.131 23048617.647 10 0 56297 33300.00000 0 -9288589.351 -5083840.346 23195439.735 10 0 56297 34200.00000 0 -8170488.137 -7704712.306 22891290.154 10 0 56297 35100.00000 0 -7273998.785 -10341136.001 22142055.862 10 0 56297 36000.00000 0 -6610164.066 -12923260.900 20962283.527 10 0 56297 36900.00000 0 -6177332.935 -15381441.136 19374898.331 10 0 56297 37800.00000 0 -5961390.101 -17648948.183 17410759.151 10 0 56297 38700.00000 0 -5936524.366 -19664574.219 15108058.481 10 0 56297 39600.00000 0 -6066502.666 -21375017.614 12511578.561 10 0 56297 40500.00000 0 -6306395.272 -22736951.070 9671818.079 10 0 56297 41400.00000 0 -6604678.466 -23718686.076 6644006.446 10 0 56297 42300.00000 0 -6905624.960 -24301364.210 3487025.146 10 0 56297 43200.00000 0 -7151880.039 -24479625.753 262257.540 10 0 56297 44100.00000 0 -7287113.469 -24261728.189 -2967609.926 10 0 56297 45000.00000 0 -7258634.097 -23669110.300 -6139811.046 10 0 56297 45900.00000 0 -7019855.648 -22735421.143 -9192723.278 10 0 56297 46800.00000 0 -6532508.718 -21505055.673 -12067066.924 10 0 56297 47700.00000 0 -5768504.879 -20031259.511 -14707056.315 10 0 56297 48600.00000 0 -4711373.715 -18373883.358 -17061480.514 10 0 56297 49500.00000 0 -3357211.740 -16596881.883 -19084692.781 10 0 56297 50400.00000 0 -1715102.884 -14765662.393 -20737489.957 10 0 56297 51300.00000 0 193007.618 -12944394.322 -21987865.461 10 0 56297 52200.00000 0 2332981.278 -11193391.742 -22811622.180 10 0 56297 53100.00000 0 4659669.070 -9566677.700 -23192834.228 10 0 56297 54000.00000 0 7118560.400 -8109831.140 -23124149.555 10 0 56297 54900.00000 0 9647830.680 -6858205.147 -22606928.183 10 0 56297 55800.00000 0 12180703.341 -5835589.711 -21651213.852 10 0 56297 56700.00000 0 14648029.343 -5053373.643 -20275539.770 10 0 56297 57600.00000 0 16980978.106 -4510239.527 -18506572.016 10 0 56297 58500.00000 0 19113729.021 -4192403.601 -16378597.115 10 0 56297 59400.00000 0 20986052.526 -4074389.774 -13932863.030 10 0 56297 60300.00000 0 22545674.037 -4120304.806 -11216785.556 10 0 56297 61200.00000 0 23750322.591 -4285560.760 -8283034.794 10 0 56297 62100.00000 0 24569379.019 -4518972.028 -5188518.697 10 0 56297 63000.00000 0 24985054.805 -4765138.362 -1993282.854 10 0 56297 63900.00000 0 24993052.138 -4967013.197 1240652.372 10 0 56297 64800.00000 0 24602677.334 -5068548.434 4450494.917 10 0 56297 65700.00000 0 23836402.592 -5017303.452 7573900.830 10 0 56297 66600.00000 0 22728894.206 -4766907.386 10550186.798 10 0 56297 67500.00000 0 21325547.842 -4279269.714 13321511.503 10 0 56297 68400.00000 0 19680592.200 -3526444.690 15834002.467 10 0 56297 69300.00000 0 17854840.615 -2492069.676 18038806.081 10 0 56297 70200.00000 0 15913184.870 -1172315.367 19893040.189 10 0 56297 71100.00000 0 13921936.296 423693.650 21360630.539 10 0 56297 72000.00000 0 11946125.575 2274007.127 22413014.753 10 0 56297 72900.00000 0 10046874.239 4344522.360 23029700.146 10 0 56297 73800.00000 0 8278947.676 6590175.639 23198664.596 10 0 56297 74700.00000 0 6688591.843 8956603.353 22916592.658 10 0 56297 75600.00000 0 5311743.753 11382204.518 22188942.299 10 0 56297 76500.00000 0 4172690.107 13800519.582 21029840.815 10 0 56297 77400.00000 0 3283229.646 16142826.842 19461811.760 10 0 56297 78300.00000 0 2642373.532 18340848.635 17515337.912 10 0 56297 79200.00000 0 2236595.450 20329454.618 15228268.504 10 0 56297 80100.00000 0 2040619.988 22049249.228 12645082.045 10 0 56297 81000.00000 0 2018715.042 23448935.163 9816018.957 10 0 56297 81900.00000 0 2126432.674 24487353.969 6796100.898 10 0 56297 82800.00000 0 2312723.823 25135118.125 3644056.196 10 0 56297 83700.00000 0 2522336.383 25375766.363 421172.654 10 0 56297 84600.00000 0 2698394.083 25206393.944 -2809899.367 10 0 56297 85500.00000 0 2785046.060 24637731.857 -5986369.573 10 0 56298 0.00000 0 2730074.069 23693672.242 -9046531.604 10 0 56298 900.00000 0 2487345.864 22410260.466 -11930964.149 10 0 56298 1800.00000 0 2019011.450 20834197.542 -14583684.616 10 0 56298 2700.00000 0 1297347.035 19020915.618 -16953234.003 10 0 56298 3600.00000 0 306170.442 17032308.554 -18993671.247 10 0 56298 4500.00000 0 -958233.344 14934212.618 -20665458.417 10 0 56298 5400.00000 0 -2486715.194 12793742.913 -21936220.275 10 0 56298 6300.00000 0 -4257410.764 10676596.481 -22781364.341 10 0 56298 7200.00000 0 -6236429.591 8644434.130 -23184550.284 10 0 56298 8100.00000 0 -8379056.334 6752449.213 -23138000.470 10 0 56298 9000.00000 0 -10631414.978 5047223.549 -22642646.333 10 0 56298 9900.00000 0 -12932527.585 3564958.577 -21708108.182 10 0 56298 10800.00000 0 -15216683.026 2330154.088 -20352509.021 10 0 56298 11700.00000 0 -17416018.240 1354788.328 -18602125.806 10 0 56298 12600.00000 0 -19463205.535 638032.570 -16490884.495 10 0 56298 13500.00000 0 -21294134.995 166511.041 -14059708.030 10 0 56298 14400.00000 0 -22850480.897 -84905.490 -11355729.081 10 0 56298 15300.00000 0 -24082045.474 -151806.328 -8431382.089 10 0 56298 16200.00000 0 -24948782.362 -78502.511 -5343391.501 10 0 56298 17100.00000 0 -25422415.049 84082.955 -2151675.234 10 0 56298 18000.00000 0 -25487582.294 280807.037 1081815.606 10 0 56298 18900.00000 0 -25142462.084 454879.453 4294298.342 10 0 56298 19800.00000 0 -24398847.489 550507.130 7423378.306 10 0 56298 20700.00000 0 -23281670.670 515498.001 10408262.299 10 0 56298 21600.00000 0 -21827994.543 303713.300 13190942.068 10 0 56298 22500.00000 0 -20085513.964 -122736.214 15717324.421 10 0 56298 23400.00000 0 -18110628.961 -791643.910 17938285.575 10 0 56298 24300.00000 0 -15966170.535 -1719289.950 19810629.032 10 0 56298 25200.00000 0 -13718874.024 -2909514.038 21297928.198 10 0 56298 26100.00000 0 -11436705.653 -4353318.641 22371237.254 10 0 56298 27000.00000 0 -9186153.867 -6029020.780 23009656.465 10 0 56298 27900.00000 0 -7029598.348 -7902947.466 23200741.004 10 0 56298 28800.00000 0 -5022866.414 -9930646.865 22940745.295 10 0 56298 29700.00000 0 -3213078.362 -12058565.707 22234698.118 10 0 56298 30600.00000 0 -1636871.214 -14226123.780 21096306.865 10 0 56298 31500.00000 0 -319074.515 -16368099.489 19547692.610 10 0 56298 32400.00000 0 728107.325 -18417227.284 17618960.895 10 0 56298 33300.00000 0 1505372.804 -20306898.699 15347616.278 10 0 56298 34200.00000 0 2026050.636 -21973853.982 12777831.859 10 0 56298 35100.00000 0 2315289.234 -23360751.606 9959587.861 10 0 56298 36000.00000 0 2408743.752 -24418507.826 6947696.051 10 0 56298 36900.00000 0 2350817.297 -25108307.892 3800729.271 10 0 56298 37800.00000 0 2192531.882 -25403204.405 579877.306 10 0 56298 38700.00000 0 1989120.365 -25289235.598 -2652248.148 10 0 56298 39600.00000 0 1797442.388 -24766016.644 -5832835.374 10 0 56298 40500.00000 0 1673334.723 -23846779.430 -8900097.042 10 0 56298 41400.00000 0 1669009.045 -22557859.485 -11794472.755 10 0 56298 42300.00000 0 1830607.899 -20937652.168 -14459785.859 10 0 56298 43200.00000 0 2196022.688 -19035082.378 -16844331.982 10 0 56298 44100.00000 0 2793066.211 -16907652.416 -18901878.278 10 0 56298 45000.00000 0 3638077.012 -14619149.994 -20592554.357 10 0 56298 45900.00000 0 4735014.576 -12237112.283 -21883618.348 10 0 56298 46800.00000 0 6075083.636 -9830151.555 -22750084.058 10 0 56298 47700.00000 0 7636903.721 -7465253.466 -23175197.985 10 0 56298 48600.00000 0 9387217.381 -5205159.600 -23150757.797 10 0 56298 49500.00000 0 11282108.222 -3105942.051 -22677266.852 10 0 56298 50400.00000 0 13268678.673 -1214869.784 -21763922.185 10 0 56298 51300.00000 0 15287118.525 431345.935 -20428436.419 10 0 56298 52200.00000 0 17273079.022 1807855.370 -18696696.862 10 0 56298 53100.00000 0 19160254.463 2902470.347 -16602268.024 10 0 56298 54000.00000 0 20883064.558 3715928.336 -14185746.546 10 0 56298 54900.00000 0 22379326.309 4261610.549 -11493980.252 10 0 56298 55800.00000 0 23592804.220 4564726.656 -8579165.765 10 0 56298 56700.00000 0 24475532.416 4661001.022 -5497841.420 10 0 56298 57600.00000 0 24989811.393 4594916.191 -2309794.468 10 0 56298 58500.00000 0 25109795.348 4417588.031 923096.524 10 0 56298 59400.00000 0 24822603.022 4184362.547 4138061.741 10 0 56298 60300.00000 0 24128904.710 3952236.302 7272659.322 10 0 56298 61200.00000 0 23042960.053 3777209.919 10265989.653 10 0 56298 62100.00000 0 21592104.240 3711687.159 13059880.858 10 0 56298 63000.00000 0 19815703.409 3802030.287 15600022.092 10 0 56298 63900.00000 0 17763622.438 4086375.836 17837022.160 10 0 56298 64800.00000 0 15494268.744 4592804.031 19727372.654 10 0 56298 65700.00000 0 13072293.477 5337940.169 21234296.715 10 0 56298 66600.00000 0 10566045.914 6326048.040 22328466.773 10 0 56298 67500.00000 0 8044887.017 7548654.763 22988577.337 10 0 56298 68400.00000 0 5576473.931 8984724.050 23201761.733 10 0 56298 69300.00000 0 3224128.404 10601371.761 22963844.659 10 0 56298 70200.00000 0 1044398.415 12355094.846 22279425.625 10 0 56298 71100.00000 0 -915085.864 14193463.150 21161791.541 10 0 56298 72000.00000 0 -2617372.866 16057203.922 19632659.949 10 0 56298 72900.00000 0 -4037494.478 17882592.295 17721757.646 10 0 56298 73800.00000 0 -5163261.359 19604047.929 15466242.606 10 0 56298 74700.00000 0 -5995516.382 21156829.036 12909980.272 10 0 56298 75600.00000 0 -6547836.868 22479710.736 10102688.152 10 0 56298 76500.00000 0 -6845699.392 23517535.099 7098965.385 10 0 56298 77400.00000 0 -6925143.678 24223525.405 3957226.428 10 0 56298 78300.00000 0 -6830993.370 24561267.029 738560.013 10 0 56298 79200.00000 0 -6614710.143 24506271.374 -2494463.908 10 0 56298 80100.00000 0 -6331973.180 24047056.874 -5679015.283 10 0 56298 81000.00000 0 -6040087.544 23185701.581 -8753228.760 10 0 56298 81900.00000 0 -5795332.090 21937844.175 -11657407.816 10 0 56298 82800.00000 0 -5650359.839 20332133.602 -14335184.315 10 0 56298 83700.00000 0 -5651761.281 18409150.697 -16734610.861 10 0 56298 84600.00000 0 -5837893.858 16219847.207 -18809164.882 10 0 56298 85500.00000 0 -6237069.339 13823567.761 -20518645.285 10 0 56299 0.00000 0 -6866175.492 11285737.421 -21829944.988 10 0 56299 900.00000 0 -7729790.426 8675310.840 -22717685.294 10 0 56299 1800.00000 0 -8819825.806 6062089.129 -23164700.374 10 0 56299 2700.00000 0 -10115715.938 3514015.109 -23162363.741 10 0 56299 3600.00000 0 -11585143.366 1094558.081 -22710750.881 10 0 56299 4500.00000 0 -13185272.419 -1139703.988 -21818635.385 10 0 56299 5400.00000 0 -14864439.352 -3141206.065 -20503318.925 10 0 56299 6300.00000 0 -16564229.550 -4873134.602 -18790298.195 10 0 56299 7200.00000 0 -18221855.808 -6310712.005 -16712774.891 10 0 56299 8100.00000 0 -19772739.208 -7441974.838 -14311017.646 10 0 56299 9000.00000 0 -21153185.418 -8268014.409 -11631587.436 10 0 56299 9900.00000 0 -22303044.881 -8802670.566 -8726440.809 10 0 56299 10800.00000 0 -23168245.767 -9071692.377 -5651927.548 10 0 56299 11700.00000 0 -23703093.459 -9111401.512 -2467701.639 10 0 56299 12600.00000 0 -23872239.712 -8966915.067 764433.634 10 0 56299 13500.00000 0 -23652238.249 -8690003.131 3981724.184 10 0 56299 14400.00000 0 -23032620.638 -8336671.927 7121683.913 10 0 56299 15300.00000 0 -22016446.301 -7964575.017 10123309.798 10 0 56299 16200.00000 0 -20620302.562 -7630362.447 12928269.336 10 0 56299 17100.00000 0 -18873753.684 -7387080.478 15482036.929 10 0 56299 18000.00000 0 -16818261.079 -7281732.401 17734956.680 10 0 56299 18900.00000 0 -14505619.059 -7353104.236 19643210.688 10 0 56299 19800.00000 0 -11995970.788 -7629947.888 21169673.869 10 0 56299 20700.00000 0 -9355486.795 -8129599.265 22284638.504 10 0 56299 21600.00000 0 -6653802.372 -8857090.501 22966394.479 10 0 56299 22500.00000 0 -3961320.229 -9804794.622 23201653.936 10 0 56299 23400.00000 0 -1346490.423 -10952618.500 22985812.060 10 0 56299 24300.00000 0 1126819.600 -12268736.927 22323038.904 10 0 56299 25200.00000 0 3401755.856 -13710837.785 21226200.357 10 0 56299 26100.00000 0 5430608.768 -15227826.715 19716609.562 10 0 56299 27000.00000 0 7176556.058 -16761920.255 17823613.411 10 0 56299 27900.00000 0 8614945.698 -18251039.901 15584021.856 10 0 56299 28800.00000 0 9734066.140 -19631406.621 13041390.956 10 0 56299 29700.00000 0 10535372.751 -20840226.713 10245173.498 10 0 56299 30600.00000 0 11033162.221 -21818355.830 7249753.714 10 0 56299 31500.00000 0 11253709.905 -22512828.662 4113385.172 10 0 56299 32400.00000 0 11233907.961 -22879147.365 897052.873 10 0 56299 33300.00000 0 11019463.073 -22883231.908 -2336717.784 10 0 56299 34200.00000 0 10662731.289 -22502949.815 -5525081.262 10 0 56299 35100.00000 0 10220282.711 -21729160.594 -8606097.050 10 0 56299 36000.00000 0 9750300.103 -20566230.721 -11519935.309 10 0 56299 36900.00000 0 9309922.237 -19031997.470 -14210039.134 10 0 56299 37800.00000 0 8952644.872 -17157183.122 -16624220.677 10 0 56299 38700.00000 0 8725889.466 -14984284.111 -18715669.999 10 0 56299 39600.00000 0 8668842.284 -12565981.646 -20443857.411 10 0 56299 40500.00000 0 8810654.909 -9963140.068 -21775312.445 10 0 56299 41400.00000 0 9169081.708 -7242476.066 -22684265.240 10 0 56299 42300.00000 0 9749611.298 -4473995.395 -23153138.704 10 0 56299 43200.00000 0 10545128.382 -1728302.838 -23172882.869 10 0 56299 44100.00000 0 11536120.154 926103.840 -22743145.636 10 0 56299 45000.00000 0 12691418.826 3425444.690 -21872277.123 10 0 56299 45900.00000 0 13969449.621 5713066.155 -20577167.715 10 0 56299 46800.00000 0 15319932.607 7741548.749 -18882922.864 10 0 56299 47700.00000 0 16685967.812 9474427.562 -16822380.550 10 0 56299 48600.00000 0 18006417.096 10887455.295 -14435480.172 10 0 56299 49500.00000 0 19218483.681 11969356.357 -11768494.310 10 0 56299 50400.00000 0 20260381.717 12722041.451 -8873137.528 10 0 56299 51300.00000 0 21073984.214 13160274.538 -5805568.797 10 0 56299 52200.00000 0 21607338.184 13310806.807 -2625306.234 10 0 56299 53100.00000 0 21816941.026 13211014.526 605925.020 10 0 56299 54000.00000 0 21669681.901 12907098.588 3825389.655 10 0 56299 54900.00000 0 21144365.627 12451922.004 6970560.485 10 0 56299 55800.00000 0 20232753.966 11902576.951 9980334.217 10 0 56299 56700.00000 0 18940079.386 11317784.528 12796220.775 10 0 56299 57600.00000 0 17285008.443 10755237.441 15363482.715 10 0 56299 58500.00000 0 15299055.127 10268998.393 17632202.142 10 0 56299 59400.00000 0 13025467.596 9907064.521 19558254.132 10 0 56299 60300.00000 0 10517633.798 9709201.284 21104167.567 10 0 56299 61200.00000 0 7837071.752 9705137.734 22239856.474 10 0 56299 62100.00000 0 5051087.580 9913199.895 22943207.659 10 0 56299 63000.00000 0 2230198.180 10339440.408 23200513.232 10 0 56299 63900.00000 0 -554574.562 10977301.729 23006739.573 10 0 56299 64800.00000 0 -3234425.980 11807827.646 22365627.503 10 0 56299 65700.00000 0 -5745394.459 12800414.794 21289621.593 10 0 56299 66600.00000 0 -8030782.032 13914073.033 19799629.780 10 0 56299 67500.00000 0 -10043269.521 15099142.075 17924617.740 10 0 56299 68400.00000 0 -11746638.716 16299392.393 15701045.646 10 0 56299 69300.00000 0 -13117030.410 17454422.052 13172158.046 10 0 56299 70200.00000 0 -14143686.656 18502248.448 10387140.588 10 0 56299 71100.00000 0 -14829147.264 19381985.488 7400159.974 10 0 56299 72000.00000 0 -15188893.464 20036492.967 4269306.105 10 0 56299 72900.00000 0 -15250455.099 20414885.881 1055457.385 10 0 56299 73800.00000 0 -15052020.380 20474797.320 -2178908.272 10 0 56299 74700.00000 0 -14640608.168 20184298.941 -5370932.803 10 0 56299 75600.00000 0 -14069881.327 19523397.580 -8458603.458 10 0 56299 76500.00000 0 -13397694.642 18485044.551 -11381959.939 10 0 56299 77400.00000 0 -12683481.844 17075614.888 -14084259.266 10 0 56299 78300.00000 0 -11985592.781 15314836.132 -16513075.627 10 0 56299 79200.00000 0 -11358693.522 13235169.498 -18621313.948 10 0 56299 80100.00000 0 -10851339.102 10880669.122 -20368117.854 10 0 56299 81000.00000 0 -10503821.047 8305366.838 -21719655.081 10 0 56299 81900.00000 0 -10346379.866 5571249.387 -22649765.911 10 0 56299 82800.00000 0 -10397857.222 2745911.818 -23140462.920 10 0 56299 83700.00000 0 -10664843.912 -100016.156 -23182273.247 10 0 56299 84600.00000 0 -11141359.025 -2895564.964 -22774417.469 10 0 56299 85500.00000 0 -11809073.541 -5572130.328 -21924822.115 99